sat.trackr.live / text

‹ back to catalog

STARLINK-4582

NORAD 53569 · 2022-101AU

PAYLOAD ACTIVE UNKNOWN

§ Identity

Operator
Country
US
Launch date
2022-08-19
Launch site
AFETR
Launch vehicle
Mass (kg)
RCS (m²)

Purposes: comms

External: N2YO · Heavens-Above · Gunter

§ Orbital elements

Epoch: 2026-09-19T22:30:44.197920Z

Period
93.85 min
Inclination
53.1585°
Eccentricity
0.0001336
Mean motion
15.34386251 rev/d
Perigee alt
461.8 km
Apogee alt
463.7 km
Semi-major
6,840.9 km
B*
1.1553e-5
RAAN
246.4676°
Arg perigee
85.3073°
Mean anomaly
274.8082°
Rev number
22,665

§ Raw data

STARLINK-45821 53569U 22101AU  26262.93801155  .00000014  00000+0  11553-4 0  99972 53569  53.1585 246.4676 0001336  85.3073 274.8082 15.34386251226651

JSON: /api/v1/satellites/53569 · /tle

For live sub-satellite position, see the globe view (requires WebGL).

§ Visibility from observer

Set your observer location to see the next 7 days of passes ≥ 10°. The values pass through the URL so the page stays shareable.

No JS? Fill the form by hand. The geolocation button needs JavaScript.